Weather History for Saginaw, MI

Change the Weather History Date:

Friday, May 9, 2014

  Actual Average Record
Temperature  
Mean Temperature 67 °F 55 °F  
Max Temperature 76 °F 66 °F 82 °F (2005)
Min Temperature 57 °F 44 °F 37 °F (2008)
Degree Days  
Heating Degree Days 0    
Month to date heating degree days 113  
Since 1 July heating degree days 7473  
Cooling Degree Days 2    
Month to date cooling degree days 3  
Year to date cooling degree days 6  
Growing Degree Days 18 (Base 50)    
Moisture  
Dew Point 58 °F    
Average Humidity 62    
Maximum Humidity 70    
Minimum Humidity 53    
Precipitation  
Precipitation 0.24 in 0.11 in 1.36 in (2000)
Month to date precipitation 0.85 0.97  
Year to date precipitation 9.21 9.24  
Snow  
Snow 0.00 in - - ()
Month to date snowfall 0.0  
Since 1 July snowfall 60.3  
Snow Depth 0.00 in    
Sea Level Pressure  
Sea Level Pressure 29.72 in    
Wind  
Wind Speed 16 mph (SSW)    
Max Wind Speed 37 mph    
Max Gust Speed 44 mph    
Visibility 9 miles    
Events Rain    
T = Trace of Precipitation, MM = Missing Value Source: NWS Daily Summary

Daily Weather History Graph

Daily Weather History Graph

Search for Another Location

Airport:

Trip Planner

Search our weather history database for the weather conditions in past years. The results will help you decide how hot, cold, wet, or windy it might be!

Date:

Astronomy

May. 09, 2014 Rise Set
Actual Time 6:18 AM EDT 8:47 PM EDT
Civil Twilight 5:46 AM EDT 9:20 PM EDT
Nautical Twilight 5:05 AM EDT 10:00 PM EDT
Astronomical Twilight 4:20 AM EDT 10:46 PM EDT
Moon 3:35 PM EDT (5/9) 3:30 AM EDT (5/9)
Length of Visible Light 15h 34m
Length of Day
14h 29m
Waxing Gibbous, 73% of the Moon is Illuminated
May 9
Waxing Gibbous
May 14
Full
May 21
Last Quarter
May 28
New
Jun 5
First Quarter

Hourly Weather History & Observations

Time (EDT) Temp. Dew Point Humidity Pressure Visibility Wind Dir Wind Speed Gust Speed Precip Events Conditions
12:53 AM 75.0 °F 61.0 °F 62% 29.82 in 10.0 mi South 10.4 mph - N/A   Clear
1:53 AM 73.0 °F 60.1 °F 64% 29.81 in 10.0 mi South 8.1 mph - N/A   Clear
2:53 AM 72.0 °F 59.0 °F 64% 29.79 in 10.0 mi South 10.4 mph - N/A   Clear
3:53 AM 71.1 °F 59.0 °F 66% 29.78 in 10.0 mi South 8.1 mph - N/A   Clear
4:53 AM 69.8 °F 59.0 °F 68% 29.79 in 10.0 mi South 11.5 mph - N/A   Clear
5:53 AM 69.1 °F 59.0 °F 70% 29.77 in 10.0 mi South 11.5 mph - N/A   Scattered Clouds
6:53 AM 69.1 °F 59.0 °F 70% 29.77 in 10.0 mi South 10.4 mph - N/A   Scattered Clouds
7:53 AM 71.1 °F 59.0 °F 66% 29.78 in 10.0 mi SW 15.0 mph 24.2 mph N/A   Clear
8:53 AM 70.0 °F 59.0 °F 68% 29.78 in 10.0 mi SW 15.0 mph 20.7 mph N/A   Clear
9:53 AM 69.1 °F 60.1 °F 73% 29.77 in 10.0 mi SW 11.5 mph - 0.00 in Rain Light Rain
10:53 AM 72.0 °F 61.0 °F 68% 29.75 in 10.0 mi SSW 12.7 mph - 0.00 in   Scattered Clouds
11:53 AM 73.9 °F 59.0 °F 59% 29.73 in 10.0 mi SSW 19.6 mph 31.1 mph N/A   Partly Cloudy
12:48 PM 69.8 °F 60.8 °F 73% 29.72 in 2.5 mi SSW 20.7 mph 28.8 mph 0.03 in Rain Light Rain
12:53 PM 68.0 °F 61.0 °F 78% 29.72 in 1.5 mi SSW 16.1 mph 26.5 mph 0.06 in Rain Rain
1:09 PM 68.0 °F 62.1 °F 81% 29.72 in 5.0 mi SSW 15.0 mph 24.2 mph 0.18 in Rain Light Rain
1:29 PM 69.1 °F 63.0 °F 81% 29.71 in 10.0 mi SSW 9.2 mph - 0.18 in Rain Light Rain
1:53 PM 72.0 °F 60.1 °F 66% 29.67 in 10.0 mi SSW 19.6 mph 32.2 mph 0.18 in   Overcast
2:53 PM 73.9 °F 55.9 °F 53% 29.64 in 10.0 mi SSW 26.5 mph 38.0 mph 0.00 in   Mostly Cloudy
3:53 PM 73.9 °F 57.0 °F 55% 29.65 in 10.0 mi SW 21.9 mph 36.8 mph N/A   Mostly Cloudy
4:53 PM 75.9 °F 57.0 °F 52% 29.63 in 10.0 mi SW 24.2 mph 31.1 mph N/A   Unknown
5:53 PM 75.0 °F 57.9 °F 55% 29.62 in 10.0 mi SW 24.2 mph 29.9 mph N/A   Partly Cloudy
6:53 PM 75.0 °F 57.9 °F 55% 29.63 in 10.0 mi SW 20.7 mph 32.2 mph N/A   Partly Cloudy
7:53 PM 73.9 °F 57.0 °F 55% 29.63 in 10.0 mi WSW 17.3 mph 28.8 mph N/A   Clear
8:53 PM 69.1 °F 54.0 °F 58% 29.66 in 10.0 mi West 18.4 mph 28.8 mph N/A   Clear
9:53 PM 64.9 °F 50.0 °F 58% 29.69 in 10.0 mi WSW 13.8 mph - N/A   Clear
10:53 PM 62.6 °F 48.2 °F 59% 29.74 in 10.0 mi West 18.4 mph 27.6 mph N/A   Clear
11:53 PM 60.1 °F 46.9 °F 62% 29.76 in 10.0 mi WSW 18.4 mph - N/A   Clear